Regional Weather Roundup
Issued by NWS

Home | Current Version | Previous Version | Graphics & Text | Print | Product List | Glossary On
Versions: 1 2 3 4 5 6 7 8 9 10 11 12 13 14 15 16 17 18 19 20 21 22 23 24 25 26 27 28 29 30 31 32 33 34 35 36 37 38 39 40 41 42 43 44 45 46 47 48 49 50
000
ASUS45 KSLC 262210
RWRUT

UTAH REGIONAL WEATHER ROUNDUP
NATIONAL WEATHER SERVICE SALT LAKE CITY UT
400 PM MDT SUN APR 26 2015

UTZ001>011-023>025-262300-

NORTHERN UTAH

CITY           SKY/WX    TMP DP  RH WIND       PRES   REMARKS
BRIGHAM CITY   CLOUDY    51  31  46 NW9       30.03S
HILL AFB       NOT AVBL
LOGAN          CLOUDY    49  34  56 N9        30.03R
OGDEN          CLOUDY    53  33  46 N14G22    30.01S
PROVO AIRPORT  PTSUNNY   52  34  50 NW21      30.00R
SALT LAKE CITY CLOUDY    48  32  53 W14       30.03R
VERNAL         MOSUNNY   61  32  33 N8        29.82F
WENDOVER       MOSUNNY   57  18  21 NW10G21   30.05S
HEBER CITY     PTSUNNY   46  32  57 N16       29.98R
WEST JORDAN    CLOUDY    48  34  57 NW12      30.04R

$$

UTZ012>022-026-027-262300-

SOUTHERN/CENTRAL UTAH

CITY           SKY/WX    TMP DP  RH WIND       PRES   REMARKS
BLANDING       MOSUNNY   55  37  49 NW23G30   29.83F
BRYCE CANYON   CLOUDY    42  26  53 NW16G29   29.95R
CEDAR CITY     CLOUDY    48  28  46 NE13G24   29.98R
DELTA          CLOUDY    50  31  47 NW13G21   30.02R
HANKSVILLE     MOSUNNY   63  32  31 NW15G26   29.83S
MILFORD        CLOUDY    52  23  32 NE17G28   29.99R
MOAB/CYNLANDS  MOSUNNY   57  41  55 NW5       29.78F
PRICE          NOT AVBL
ST GEORGE      PTCLDY    64  28  25 W10       29.91F
KANAB          MOSUNNY   57  28  33 NW15G23   29.92S

$$

REGIONAL REPORTS     COLORADO/ARIZONA

CITY           SKY/WX    TMP DP  RH WIND       PRES   REMARKS
CRAIG, CO      LGT RAIN  46  40  79 W7        29.84S
GRAND JUNCTION CLOUDY    55  43  63 CALM      29.78R
RIFLE          LGT RAIN  49  41  74 N8        29.81R
MONTROSE       CLOUDY    50  39  66 VRB6      29.81S
CORTEZ         CLOUDY    51  40  65 W8        29.75S
PAGE, AZ       PTSUNNY   62  31  31 NE5       29.80F
GRAND CANYON   PTSUNNY   51  31  46 NW9G22    29.88F
KINGMAN        MOSUNNY   65  22  19 NW24G31   29.91F
FLAGSTAFF      PTSUNNY   47  32  56 N13G25    29.88R

$$

REGIONAL REPORTS    NEVADA/IDAHO/WYOMING

CITY           SKY/WX    TMP DP  RH WIND       PRES   REMARKS
LAS VEGAS, NV  MOSUNNY   73  17  12 N20G30    29.87F
ELY            PTSUNNY   46  19  34 N13       30.07R
ELKO           MOSUNNY   51  17  26 N16G25    30.13R
POCATELLO, ID  CLOUDY    54  27  35 W12       30.04S
BURLEY         SUNNY     55  24  30 W17G23    30.05S
EVANSTON, WY   CLOUDY    38  31  76 NW9       30.01R WCI  31
ROCK SPRINGS   RAIN      42  39  89 NE10      29.92S FOG
KEMMERER       CLOUDY    45  32  61 W20G28    29.96R

$$


USA.gov is the U.S. government's official web portal to all federal, state and local government web resources and services.